Date String (YYYY-MM-DD hh:mm:ss) UTC,Instrument flags,Ambient pressure (hPa),Sample flow (lpm),Bypass flow (lpm),Sample temperature (°C),Ambient temperature (°C),ASC tube jacket temperature (°C),LED temperature (°C),Box temperature (°C),Sample RH (%),Span deviation,Mass concentration (μg/m³),Mass concentration (μg/m³),Mass concentration (μg/m³)
DateTimeUTC,F1_M11,P_M11,Q1_M11,Q2_M11,T1_M11,T2_M11,T3_M11,T4_M11,T5_M11,U1_M11,ZSPAN_M11,X0_M11,X2_M11,X1_M11
2022-08-11 16:00:00,,0832.4,5.00,0.00,29.5,28.3,00.0,38.3,31.5,31.0,0000.0,0019.58,0006.71,0004.99
2022-08-11 16:01:00,,0832.4,5.01,0.00,29.6,28.4,00.0,38.3,31.5,30.8,0000.0,0019.66,0006.71,0004.96
2022-08-11 16:02:00,,0832.4,4.99,0.00,29.6,27.9,00.0,38.2,31.4,30.8,0000.0,0020.37,0006.72,0004.95
2022-08-11 16:03:00,,0832.4,5.00,0.00,29.5,27.4,00.0,38.2,31.3,31.1,0000.0,0019.90,0006.74,0004.94
2022-08-11 16:04:00,,0832.4,4.98,0.00,29.5,27.3,00.0,38.2,31.2,31.4,0000.0,0019.18,0006.68,0004.92
2022-08-11 16:05:00,,0832.4,5.01,0.00,29.4,27.3,00.0,38.2,31.1,31.9,0000.0,0020.04,0006.68,0004.91
2022-08-11 16:06:00,,0832.3,4.99,0.00,29.4,27.5,00.0,38.2,31.1,31.9,0000.0,0020.14,0006.69,0004.92
2022-08-11 16:07:00,,0832.3,5.00,0.00,29.4,27.6,00.0,38.2,31.2,31.6,0000.0,0020.11,0006.71,0004.92
2022-08-11 16:08:00,,0832.3,5.00,0.00,29.4,27.8,00.0,38.2,31.3,32.3,0000.0,0020.30,0006.72,0004.92
2022-08-11 16:09:00,,0832.3,4.99,0.00,29.4,28.0,00.0,38.2,31.3,32.0,0000.1,0019.45,0006.74,0004.92
2022-08-11 16:10:00,,0832.3,4.99,0.00,29.5,28.1,00.0,38.2,31.4,32.0,0000.6,0019.77,0006.74,0004.92
2022-08-11 16:11:00,,0832.3,5.00,0.00,29.5,28.3,00.0,38.2,31.5,32.0,0000.9,0019.72,0006.76,0004.94
2022-08-11 16:12:00,,0832.3,5.01,0.00,29.5,28.3,00.0,38.2,31.5,32.2,0001.8,0020.33,0006.74,0004.95
2022-08-11 16:13:00,,0832.4,4.99,0.00,29.5,27.7,00.0,38.2,31.3,32.2,0002.4,0021.72,0006.79,0004.95
2022-08-11 16:14:00,,0832.3,5.01,0.00,29.5,27.3,00.0,38.2,31.2,32.9,0002.1,0022.06,0006.79,0004.95
2022-08-11 16:15:00,,0832.3,4.99,0.00,29.4,27.3,00.0,38.2,31.1,32.6,0000.1,0021.80,0006.74,0004.96
2022-08-11 16:16:00,,0832.3,5.01,0.00,29.3,27.4,00.0,38.1,31.1,32.0,0000.5,0020.91,0006.82,0004.96
2022-08-11 16:17:00,,0832.3,5.00,0.00,29.3,27.5,00.0,38.1,31.1,31.5,0000.7,0020.92,0006.89,0004.96
2022-08-11 16:18:00,,0832.3,5.01,0.00,29.3,27.7,00.0,38.1,31.2,30.4,0000.5,0020.54,0006.90,0004.96
2022-08-11 16:19:00,,0832.3,4.99,0.00,29.4,27.9,00.0,38.2,31.3,30.8,0000.3,0020.08,0006.84,0004.94
2022-08-11 16:20:00,,0832.3,5.00,0.00,29.4,28.0,00.0,38.2,31.3,31.6,0000.0,0020.60,0006.85,0004.94
2022-08-11 16:21:00,,0832.3,5.00,0.00,29.4,28.2,00.0,38.2,31.4,32.3,0000.0,0020.58,0006.83,0004.93
2022-08-11 16:22:00,,0832.4,5.00,0.00,29.5,28.3,00.0,38.2,31.4,32.4,0000.0,0020.21,0006.85,0004.93
2022-08-11 16:23:00,,0832.4,5.01,0.00,29.5,28.1,00.0,38.2,31.4,32.4,0000.0,0019.41,0006.83,0004.92
2022-08-11 16:24:00,,0832.4,5.00,0.00,29.5,27.4,00.0,38.2,31.3,32.0,0000.0,0017.86,0006.75,0004.90
2022-08-11 16:25:00,,0832.4,4.99,0.00,29.4,27.2,00.0,38.1,31.2,31.2,0000.0,0017.49,0006.74,0004.91
2022-08-11 16:26:00,,0832.3,5.00,0.00,29.4,27.2,00.0,38.1,31.1,31.2,0000.0,0017.92,0006.77,0004.91
2022-08-11 16:27:00,,0832.3,4.99,0.00,29.3,27.4,00.0,38.1,31.1,32.1,0000.0,0018.04,0006.80,0004.92
2022-08-11 16:28:00,,0832.3,5.01,0.00,29.3,27.5,00.0,38.1,31.2,32.3,0000.0,0017.82,0006.73,0004.92
2022-08-11 16:29:00,,0832.3,5.00,0.00,29.3,27.7,00.0,38.1,31.2,32.2,0000.0,0018.24,0006.76,0004.93
2022-08-11 16:30:00,,0832.3,5.00,0.00,29.4,27.9,00.0,38.1,31.3,31.4,0000.0,0020.30,0006.81,0004.95
2022-08-11 16:31:00,,0832.3,5.00,0.00,29.4,28.1,00.0,38.1,31.3,31.3,0000.0,0019.82,0006.76,0004.95
2022-08-11 16:32:00,,0832.3,5.00,0.00,29.4,28.2,00.0,38.2,31.4,31.6,0000.0,0019.58,0006.72,0004.95
2022-08-11 16:33:00,,0832.3,5.01,0.00,29.5,28.1,00.0,38.1,31.4,31.8,0000.0,0019.62,0006.68,0004.95
2022-08-11 16:34:00,,0832.3,4.99,0.00,29.4,27.5,00.0,38.1,31.2,33.1,0000.0,0019.99,0006.72,0004.96
2022-08-11 16:35:00,,0832.3,5.00,0.00,29.4,27.2,00.0,38.1,31.1,32.8,0000.0,0020.56,0006.78,0004.96
2022-08-11 16:36:00,,0832.4,5.00,0.00,29.3,27.2,00.0,38.1,31.1,32.6,0000.0,0021.11,0006.81,0004.96
2022-08-11 16:37:00,,0832.3,5.01,0.00,29.3,27.3,00.0,38.1,31.1,32.7,0000.0,0020.30,0006.81,0004.97
2022-08-11 16:38:00,,0832.3,4.99,0.00,29.3,27.5,00.0,38.1,31.1,33.4,0000.0,0019.32,0006.74,0004.96
2022-08-11 16:39:00,,0832.3,5.01,0.00,29.3,27.7,00.0,38.1,31.2,34.1,0000.0,0019.29,0006.77,0004.96
2022-08-11 16:40:00,,0832.4,4.99,0.00,29.3,27.9,00.0,38.1,31.3,33.8,0000.0,0019.89,0006.73,0004.95
2022-08-11 16:41:00,,0832.3,4.99,0.00,29.4,28.0,00.0,38.1,31.3,33.7,0000.0,0019.36,0006.73,0004.92
2022-08-11 16:42:00,,0832.3,5.00,0.00,29.4,28.1,00.0,38.1,31.4,32.8,0000.0,0019.35,0006.72,0004.89
2022-08-11 16:43:00,,0832.4,5.00,0.00,29.4,27.8,00.0,38.1,31.2,32.9,0000.0,0018.85,0006.76,0004.89
2022-08-11 16:44:00,,0832.4,5.01,0.00,29.3,27.2,00.0,38.1,31.0,33.5,0000.0,0018.32,0006.76,0004.87
2022-08-11 16:45:00,,0832.3,5.00,0.00,29.3,27.1,00.0,38.0,31.0,33.3,0000.0,0018.41,0006.76,0004.86
2022-08-11 16:46:00,,0832.2,4.99,0.00,29.2,27.1,00.0,38.0,30.9,33.5,0000.0,0018.01,0006.78,0004.88
2022-08-11 16:47:00,,0832.2,5.00,0.00,29.2,27.3,00.0,38.0,30.9,33.8,0000.0,0017.09,0006.78,0004.87
2022-08-11 16:48:00,,0832.3,5.00,0.00,29.2,27.5,00.0,38.0,31.0,34.2,0000.0,0017.41,0006.74,0004.85
2022-08-11 16:49:00,,0832.3,4.99,0.00,29.2,27.7,00.0,38.0,31.2,34.0,0000.0,0018.53,0006.75,0004.83
2022-08-11 16:50:00,,0832.3,5.00,0.00,29.3,27.9,00.0,38.0,31.2,33.6,0000.0,0018.61,0006.64,0004.80
2022-08-11 16:51:00,,0832.3,5.01,0.00,29.3,28.0,00.0,38.1,31.3,33.6,0000.0,0017.96,0006.61,0004.79
2022-08-11 16:52:00,,0832.2,4.99,0.00,29.3,28.0,00.0,38.1,31.3,33.4,0000.0,0016.63,0006.58,0004.81
2022-08-11 16:53:00,,0832.3,5.00,0.00,29.3,27.5,00.0,38.0,31.1,32.7,0000.0,0016.30,0006.66,0004.84
2022-08-11 16:54:00,,0832.3,4.99,0.00,29.3,27.2,00.0,38.0,31.0,32.8,0000.0,0016.12,0006.60,0004.85
2022-08-11 16:55:00,,0832.3,5.00,0.00,29.2,27.1,00.0,38.0,31.0,33.0,0000.0,0016.54,0006.59,0004.88
2022-08-11 16:56:00,,0832.2,5.01,0.00,29.2,27.2,00.0,38.0,31.0,33.2,0000.0,0017.05,0006.57,0004.88
2022-08-11 16:57:00,,0832.3,5.00,0.00,29.2,27.4,00.0,38.0,31.0,32.9,0000.0,0018.72,0006.55,0004.87
2022-08-11 16:58:00,,0832.3,5.00,0.00,29.2,27.6,00.0,38.0,31.1,33.1,0000.0,0019.77,0006.56,0004.89
2022-08-11 16:59:00,,0832.3,4.99,0.00,29.2,27.8,00.0,38.0,31.2,32.8,0000.0,0020.31,0006.62,0004.91
